Tracking 20376 objects as of 22-Feb-2020
HD Live streaming from Space Station
objects crossing your sky now
Track the group of recently launched Starlink satellites

STARLINK-1174

Track STARLINK-1174 now!
10-day predictions
STARLINK-1174 is classified as:


NORAD ID: 45075
Int'l Code: 2020-006AH
Perigee: 356.1 km
Apogee: 357.8 km
Inclination: 53.0 °
Period: 91.5 minutes
Semi major axis: 6727 km
RCS: Unknown
Launch date: January 29, 2020
Source: United States (US)
Launch site: AIR FORCE EASTERN TEST RANGE (AFETR)
aabbcc
Your satellite tracking list
Your tracking list is empty




NASA's NSSDC Master Catalog

Two Line Element Set (TLE):
1 45075U 20006AH  20052.91667824 +.00121738 +00000-0 +85987-3 0  9993
2 45075 052.9959 119.4698 0001265 038.1766 126.7153 15.73178915001772
Source of the keplerian elements: AFSPC